This is the latest recevied weather packets stored in our database for station/object WO5CID. If no packets are shown the sender has not sent any weather packets the latest 10 day(s).
| Time | Temp. | Humidity | Pressure | Rain* | Wind** | Luminosity | Snow |
|---|---|---|---|---|---|---|---|
| 1777915560 | 28.89° C | 36% | 1017.1 hPa | 0 mm | - | 943 W/m² | - |
| 1777915256 | 27.78° C | 35% | 1017.1 hPa | 0 mm | - | 941 W/m² | - |
| 1777914953 | 28.89° C | 31% | 1017.1 hPa | 0 mm | - | 959 W/m² | - |
| 1777914650 | 27.78° C | 34% | 1017.2 hPa | 0 mm | - | 966 W/m² | - |
| 1777914346 | 27.78° C | 34% | 1017.5 hPa | 0 mm | - | 969 W/m² | - |
| 1777914044 | 27.78° C | 35% | 1017.4 hPa | 0 mm | - | 1012 W/m² | - |
| 1777913739 | 28.33° C | 35% | 1017.6 hPa | 0 mm | - | 1081 W/m² | - |
| 1777913436 | 28.33° C | 36% | 1017.6 hPa | 0 mm | - | 991 W/m² | - |
| 1777913133 | 27.78° C | 38% | 1017.6 hPa | 0 mm | - | 980 W/m² | - |
| 1777912829 | 27.78° C | 34% | 1017.6 hPa | 0 mm | - | 989 W/m² | - |
| 1777912526 | 28.33° C | 36% | 1017.8 hPa | 0 mm | - | 964 W/m² | - |
| 1777912222 | 27.78° C | 36% | 1017.7 hPa | 0 mm | - | 932 W/m² | - |
| 1777911918 | 26.67° C | 36% | 1017.7 hPa | 0 mm | - | 914 W/m² | - |
| 1777911615 | 26.67° C | 33% | 1017.9 hPa | 0 mm | - | 905 W/m² | - |
| 1777911310 | 27.22° C | 30% | 1018 hPa | 0 mm | - | 908 W/m² | - |
| 1777911009 | 27.22° C | 31% | 1018 hPa | 0 mm | - | 902 W/m² | - |
| 1777910706 | 27.22° C | 30% | 1018 hPa | 0 mm | - | 897 W/m² | - |
| 1777910403 | 27.22° C | 32% | 1018.2 hPa | 0 mm | - | 892 W/m² | - |
| 1777910099 | 27.22° C | 34% | 1018 hPa | 0 mm | - | 875 W/m² | - |
| 1777909797 | 27.22° C | 36% | 1018.2 hPa | 0 mm | - | 866 W/m² | - |
| 1777909493 | 26.67° C | 32% | 1018.1 hPa | 0 mm | - | 858 W/m² | - |
| 1777909191 | 25.56° C | 38% | 1018.1 hPa | 0 mm | - | 851 W/m² | - |
| 1777908889 | 26.67° C | 34% | 1018.1 hPa | 0 mm | - | 845 W/m² | - |
| 1777908586 | 26.67° C | 33% | 1017.9 hPa | 0 mm | - | 837 W/m² | - |
| 1777908282 | 26.67° C | 39% | 1018.1 hPa | 0 mm | - | 823 W/m² | - |
* Rain latest hour (hover to see other rain measurements)
** Current wind speed in m/s (hover to see current wind gust speed)